Theta_e
351 353 355 356 356 356 354 354 354 353 354 354 353 352 352 352 352 352 351 351 351 351 350 349 349 349 348 349 348 348 347 346 346 346 345 345 344 344 344 347 347 350 350 350 350 350 350 349 349 350 349 348 348 347 348 347 347 346 345 346 345 345 344 342 345 345 344 344 345 345 345 345 344 344 344 345 345 346 346 345 345 342 341 346 346
351 354 355 355 355 355 355 354 353 353 353 353 352 351 351 352 352 351 351 350 350 350 349 350 350 350 348 348 347 347 346 346 345 344 344 344 344 344 345 346 348 348 349 349 349 349 349 348 350 349 349 349 348 348 348 346 347 345 345 345 345 344 343 341 341 344 343 343 344 344 344 345 344 344 343 343 344 346 344 344 344 342 343 344 344
353 354 355 355 355 355 355 354 353 353 353 352 351 351 351 351 351 350 350 350 350 350 350 350 350 349 348 348 347 347 346 345 345 345 345 344 344 344 344 345 346 347 349 349 349 349 349 349 349 349 348 349 349 349 348 347 347 345 343 344 343 343 343 344 343 343 343 343 343 344 344 343 344 345 345 346 346 345 344 343 343 343 341 343 343
352 353 355 355 356 354 354 353 352 353 351 351 351 351 350 350 350 350 350 350 350 351 350 349 349 348 348 347 346 347 346 346 345 344 344 344 344 344 344 344 345 347 347 348 350 350 349 349 348 349 349 349 348 348 348 347 347 345 344 343 343 343 343 343 342 342 343 344 345 343 342 342 342 342 344 346 345 345 344 343 343 343 343 343 342
352 354 355 354 353 353 353 353 352 352 351 351 351 350 351 350 350 349 350 350 350 350 350 349 349 348 347 347 347 347 346 346 346 345 344 344 344 344 344 344 346 347 347 347 347 347 349 349 349 348 348 348 347 347 346 345 345 345 344 345 345 345 345 344 343 343 343 343 342 340 339 340 340 343 344 344 343 342 342 341 341 341 342 342 341
352 354 354 353 352 353 353 353 352 351 351 352 351 350 350 350 350 350 350 350 349 350 350 349 349 348 348 347 347 346 346 345 344 344 344 343 346 344 344 343 345 346 347 347 347 347 347 348 348 348 347 347 346 344 343 344 345 344 345 345 345 344 343 342 341 340 340 340 338 335 334 337 339 338 342 343 343 342 341 339 339 339 339 340 341
353 354 354 352 352 353 353 353 353 353 352 352 351 350 350 351 351 350 350 349 349 349 349 349 349 348 348 348 347 347 347 346 346 346 344 343 343 344 343 344 345 346 346 346 346 346 347 346 346 346 346 346 343 343 345 345 346 345 344 345 344 343 342 341 340 340 339 335 332 332 333 333 336 337 341 342 341 339 337 337 338 340 339 339 339
353 354 353 352 352 353 354 353 352 352 352 351 351 350 351 351 350 350 350 349 349 349 349 349 349 348 348 347 347 347 347 347 346 346 346 347 346 345 345 346 345 345 346 346 345 346 346 345 346 346 345 343 343 345 346 346 346 346 344 344 343 342 341 341 340 340 338 333 333 333 334 333 332 334 339 339 338 337 337 338 340 340 341 342 343
352 353 353 353 351 353 353 353 353 353 352 352 352 350 350 350 349 350 349 349 349 349 349 348 348 348 348 347 347 347 347 347 346 347 347 347 347 347 347 346 346 345 345 346 346 346 345 346 346 345 342 342 344 345 345 346 347 345 344 343 343 341 341 340 340 339 336 335 334 333 333 332 331 330 333 335 335 338 339 339 342 342 342 341 342
352 353 353 352 352 354 353 353 353 353 353 352 352 352 350 350 350 350 349 349 349 349 348 348 348 348 348 347 347 347 347 347 346 347 349 349 349 349 347 346 346 346 345 346 346 346 346 346 344 343 342 344 345 345 345 345 345 346 344 343 342 341 340 340 340 338 335 334 333 333 336 336 332 333 336 340 340 339 339 339 341 340 340 341 341
352 352 352 352 353 353 352 352 353 353 353 352 351 350 350 350 351 351 349 349 349 348 348 348 348 348 347 347 347 347 346 347 347 349 350 349 349 349 348 347 346 346 346 346 346 347 346 344 342 343 343 344 344 344 344 344 344 344 343 342 340 340 339 339 336 333 333 331 330 332 335 338 334 334 335 339 341 342 341 341 341 341 340 340 341
351 352 352 352 355 352 352 352 353 353 353 352 351 351 350 350 350 349 349 349 349 348 348 348 349 348 347 347 347 347 347 347 346 348 349 349 349 349 349 348 346 346 346 346 346 346 344 344 344 344 343 344 344 344 344 344 343 343 342 341 340 339 338 337 332 332 331 331 332 332 331 332 334 336 341 342 341 341 340 340 340 341 340 340 340
351 352 352 352 351 352 352 352 353 353 353 353 352 351 351 350 349 349 350 350 350 349 348 348 349 349 348 347 347 347 347 347 347 348 349 349 350 349 349 348 348 347 347 347 346 345 345 345 345 344 344 345 344 343 343 343 342 342 341 340 340 339 338 337 331 331 331 331 332 332 332 333 335 337 339 340 340 339 339 339 338 339 338 338 338
350 351 351 351 351 354 352 352 352 353 353 353 353 352 351 350 349 349 350 350 350 351 349 349 349 349 349 348 348 347 347 348 348 349 349 349 349 349 348 348 348 347 347 347 346 345 345 344 344 346 346 344 343 343 343 343 342 341 341 340 339 338 338 336 334 331 332 333 335 333 334 336 336 338 338 339 338 337 337 337 337 337 337 337 337
349 350 351 351 351 351 354 352 352 352 352 352 352 352 351 350 350 350 350 351 351 350 350 349 350 349 349 348 348 348 348 348 349 350 349 349 349 348 348 348 347 347 347 346 345 345 344 344 345 345 346 344 343 342 343 342 342 341 340 339 337 336 335 329 329 329 331 332 332 332 332 333 337 336 336 337 337 336 335 336 336 336 335 336 335
351 351 351 350 351 350 350 352 353 352 352 352 351 351 351 350 350 350 350 350 350 350 350 349 349 349 349 349 349 349 349 349 350 349 349 349 348 348 347 347 347 347 347 346 346 345 344 344 345 345 346 344 343 342 342 341 340 340 339 337 336 336 335 331 328 328 328 329 332 334 333 335 338 337 337 336 336 337 336 336 336 335 335 335 335
351 351 350 350 350 349 349 349 350 353 352 351 351 351 351 350 350 350 350 350 350 350 350 350 350 350 350 349 350 350 350 350 349 349 348 348 347 347 347 347 347 347 347 346 346 345 344 344 344 345 345 343 342 342 341 341 340 339 338 337 336 336 336 334 329 329 331 333 332 331 333 335 337 337 338 338 337 337 336 336 336 335 335 335 334
350 350 349 349 349 349 349 348 349 349 349 351 352 351 351 351 350 350 350 350 350 350 350 350 350 350 350 350 350 350 350 349 348 348 348 347 347 346 346 347 346 347 346 346 346 345 344 344 344 344 344 343 342 342 341 340 339 338 337 336 336 337 336 335 330 331 333 335 332 335 335 336 337 336 336 335 336 335 334 334 334 334 333 332 332
348 348 349 349 349 349 347 346 347 347 347 347 348 349 351 350 350 350 350 350 350 350 350 349 350 350 351 350 350 350 350 349 348 347 347 347 347 346 346 346 347 346 347 346 345 344 344 343 343 343 344 344 342 341 340 339 338 337 337 337 337 336 335 332 330 331 332 332 333 333 334 337 336 334 335 335 333 332 333 333 333 333 332 332 333
346 346 348 349 349 348 347 346 345 345 345 345 346 346 349 350 350 350 350 350 350 350 349 349 350 351 351 349 349 349 349 348 348 347 347 347 346 345 346 346 346 346 347 346 345 344 344 343 343 343 342 342 341 341 340 339 339 338 337 337 336 334 329 329 329 329 331 334 334 334 337 336 335 335 335 335 335 334 334 334 331 332 333 333 333
343 345 347 348 348 347 347 345 345 345 345 345 345 345 347 350 349 350 350 350 350 350 349 350 349 349 348 348 347 344 344 345 345 345 347 346 346 346 346 346 346 346 346 346 345 344 343 344 344 344 343 342 341 341 340 340 339 338 337 336 334 328 328 328 329 332 331 333 334 332 334 333 334 334 334 334 334 334 333 332 333 332 332 332 331
340 342 344 346 347 347 346 345 345 345 345 345 344 345 346 348 345 346 347 347 348 349 347 346 347 345 346 345 343 345 342 342 344 347 344 346 345 346 346 346 346 346 346 346 345 344 344 344 343 343 343 342 341 338 340 340 339 337 336 333 327 327 328 328 328 329 330 331 334 334 335 334 333 333 334 333 332 332 332 332 332 332 332 332 331
336 340 343 345 345 345 346 345 346 345 345 345 345 345 344 344 343 344 346 347 346 346 344 345 341 342 342 342 343 341 341 342 343 345 345 345 345 345 345 345 345 346 346 345 345 344 343 343 341 340 341 340 336 334 334 334 335 337 334 328 326 327 327 327 328 328 329 332 331 333 333 333 334 333 333 333 332 332 332 332 331 331 331 331 331
337 340 341 343 344 344 345 345 345 345 345 345 344 344 344 342 342 342 342 342 342 344 342 342 341 341 341 343 342 341 340 340 345 347 346 343 343 345 345 345 345 345 345 344 345 344 342 341 339 338 336 334 333 332 329 327 326 325 326 326 326 326 327 328 329 328 330 332 330 333 333 333 331 332 333 333 332 332 332 331 332 332 331 330 330
338 341 342 342 343 344 344 344 345 344 344 344 344 343 344 342 341 341 342 341 341 339 338 338 340 340 342 343 343 342 339 339 340 339 337 338 338 338 337 336 336 337 339 335 337 336 333 332 331 331 330 331 330 327 326 325 326 326 326 326 327 327 328 329 329 329 329 330 334 334 334 333 333 332 334 333 333 332 332 331 331 330 329 329 329
339 338 340 341 342 343 344 344 344 343 343 344 344 345 344 343 342 342 342 342 340 339 338 336 339 340 341 342 342 339 337 338 337 336 336 336 336 335 334 334 334 335 336 332 333 333 332 332 331 329 329 329 327 326 326 326 325 326 326 327 327 328 328 329 329 330 330 331 334 333 332 332 332 332 332 332 332 331 331 331 332 331 330 330 330
335 337 340 340 342 343 343 343 343 343 344 345 345 344 343 343 343 343 342 341 340 336 338 338 339 340 340 341 340 338 337 336 336 335 335 335 334 333 334 334 335 335 334 333 332 332 332 332 330 329 328 328 327 326 326 325 326 326 327 328 328 329 329 329 329 329 330 332 333 332 332 332 332 333 332 333 332 332 332 331 331 330 329 330 330
334 336 338 339 341 341 342 342 342 342 342 344 344 343 343 342 342 343 342 342 340 338 339 340 340 339 338 339 340 338 338 336 335 335 334 334 333 332 335 337 337 336 334 333 333 332 332 332 330 329 329 328 327 327 328 327 327 328 328 328 329 329 329 329 329 329 330 331 333 333 333 333 334 332 332 332 332 333 332 332 332 332 331 331 331
332 335 337 338 340 341 341 340 342 342 342 343 342 342 342 341 340 340 339 343 339 339 339 339 339 339 338 338 339 337 338 336 335 335 333 333 332 333 336 335 336 335 334 331 332 332 332 331 329 328 328 328 328 328 329 328 328 328 329 329 330 330 330 330 329 329 329 330 331 333 333 332 334 333 332 333 333 333 333 333 333 332 332 332 332
332 334 336 337 339 340 340 340 341 341 342 342 341 341 340 339 338 339 339 342 339 339 340 337 338 338 338 337 337 337 337 336 336 335 334 333 332 332 334 334 334 333 330 330 330 332 331 330 328 328 328 328 329 330 329 329 329 329 330 330 331 331 330 330 329 328 328 329 330 334 335 338 337 337 336 335 335 335 334 334 334 334 333 332 331
332 332 335 336 338 339 339 340 340 342 341 340 340 340 340 338 338 338 340 340 339 339 339 338 337 338 338 337 336 337 336 336 336 335 335 333 332 332 332 331 330 329 329 328 329 330 331 331 329 328 327 328 329 330 330 329 329 330 331 331 330 330 330 329 329 329 328 328 330 333 338 340 340 339 338 337 336 335 335 334 334 334 334 333 332
331 332 333 335 336 336 337 338 339 340 340 340 339 339 339 339 339 339 340 339 339 339 338 338 339 338 337 336 336 336 337 335 335 334 333 332 331 331 330 329 329 328 329 328 328 328 330 330 329 328 328 329 328 329 329 329 329 330 330 330 330 330 330 329 329 328 329 330 331 333 336 338 339 339 339 338 339 336 336 335 335 335 334 334 334
331 332 333 333 333 334 335 336 337 338 339 339 338 338 339 339 339 339 339 339 339 338 337 337 339 338 337 337 336 336 337 335 334 334 335 332 331 330 329 330 329 328 328 328 328 328 331 330 329 329 328 328 328 328 329 329 328 329 330 330 330 329 329 329 328 329 330 329 330 332 333 334 336 338 338 338 338 337 337 337 337 337 336 336 336
330 331 331 332 333 334 334 334 335 336 337 337 337 337 338 338 339 338 339 338 338 338 338 338 340 339 338 337 336 337 336 336 335 334 335 332 331 330 329 329 328 328 328 329 328 328 329 329 328 328 330 328 327 327 328 327 328 329 330 330 330 329 329 328 328 329 328 328 328 330 330 331 332 333 336 337 337 336 336 336 337 336 336 336 335
330 330 331 332 333 332 333 333 335 333 337 336 336 336 337 337 338 337 337 338 337 337 338 338 339 339 339 337 337 337 336 336 335 335 334 332 330 329 329 329 329 329 328 329 329 328 329 328 328 327 326 326 327 328 328 328 328 328 329 329 329 328 328 328 328 329 328 328 328 329 329 329 330 330 331 332 335 336 336 335 336 336 335 335 335
330 331 332 332 331 331 333 332 333 333 334 334 334 335 336 336 336 337 335 336 337 337 338 338 339 339 339 337 337 337 336 336 335 335 333 333 332 330 329 329 330 329 329 329 329 328 328 328 328 327 325 325 326 326 328 328 328 328 328 328 328 328 327 327 328 328 328 328 328 328 328 329 331 332 331 330 331 334 336 336 337 336 335 335 335
330 330 331 331 331 330 332 331 331 332 333 334 333 333 334 335 335 336 335 336 336 336 337 338 338 338 338 337 337 337 336 336 335 334 334 332 332 331 330 330 331 330 329 329 329 329 328 328 327 328 328 325 325 326 327 328 328 328 328 327 327 327 327 327 327 327 328 328 327 327 329 331 334 332 329 329 329 329 331 336 337 337 337 336 335
330 331 331 331 330 330 330 330 329 331 332 333 333 332 333 334 335 335 336 335 335 336 337 338 337 336 336 336 337 337 336 334 334 333 332 332 331 331 329 331 331 330 329 329 329 329 329 328 326 326 327 326 325 326 326 328 328 327 326 326 326 326 326 327 328 329 328 327 327 326 329 330 329 329 329 328 328 329 329 331 333 334 336 334 335
329 330 330 330 329 329 331 332 331 330 330 333 333 332 332 333 333 333 334 334 334 334 336 337 336 336 335 336 337 337 336 334 333 333 331 332 330 330 329 330 331 330 329 328 328 329 328 328 327 326 326 326 326 327 328 329 328 327 326 326 326 327 327 328 328 327 327 327 329 329 329 329 328 328 328 328 327 328 329 329 329 331 334 336 336
328 329 329 328 327 330 332 332 331 331 331 333 333 332 332 331 330 331 332 333 333 334 334 336 336 335 335 335 333 333 334 333 332 332 331 332 330 329 329 329 330 330 329 328 327 327 327 326 326 326 325 327 328 329 329 328 327 326 325 326 327 328 328 327 327 327 327 328 330 328 328 328 328 328 328 327 327 327 327 328 329 329 330 332 334
326 327 328 329 329 330 330 330 331 331 332 331 331 331 329 329 330 330 330 332 332 334 334 335 335 335 335 334 333 333 333 334 333 332 331 333 330 329 329 329 329 329 328 328 328 328 328 327 326 327 325 324 326 329 329 328 325 322 325 325 325 327 327 327 326 326 327 328 328 328 328 327 327 327 326 327 327 327 327 327 327 328 328 329 330
327 327 328 330 330 331 330 330 331 331 331 332 332 332 331 331 330 330 331 332 332 332 332 334 334 335 334 333 333 333 332 332 334 331 331 331 329 329 329 329 329 328 328 329 329 330 328 327 326 325 326 326 325 328 328 327 322 321 319 320 322 324 324 324 326 327 327 327 327 327 327 327 326 326 326 327 327 328 327 327 327 327 327 328 329
328 328 329 330 330 330 329 329 330 331 332 332 332 331 332 332 332 331 331 331 334 334 334 335 335 334 333 331 332 332 332 332 332 332 331 331 330 329 329 329 329 329 328 328 328 328 327 326 326 325 324 327 327 328 328 326 322 323 323 320 317 317 321 323 325 326 325 325 326 327 327 327 327 327 326 326 327 328 328 327 326 326 326 327 328
328 328 329 329 330 330 329 330 331 332 332 333 332 332 332 332 331 330 331 332 331 333 333 334 334 333 331 331 331 331 331 331 331 331 332 331 330 329 329 329 329 329 328 327 327 327 327 326 326 326 326 324 325 325 327 324 325 322 316 317 317 318 314 317 321 323 326 326 327 327 328 328 328 328 327 327 326 327 327 326 325 325 325 325 325
326 326 327 327 328 329 330 330 331 332 333 333 333 332 332 331 330 331 331 330 331 331 331 330 332 331 330 329 329 331 331 331 331 332 332 331 330 330 329 330 329 330 329 328 327 328 327 327 327 326 326 325 323 325 325 325 326 327 321 317 315 315 315 317 320 321 325 324 325 327 328 328 328 328 327 328 327 327 327 325 324 324 323 323 323
328 329 328 327 328 328 330 331 332 332 333 333 333 331 331 330 328 327 326 326 324 326 326 327 328 328 327 330 330 331 331 331 331 331 332 331 329 329 329 329 329 329 329 329 329 329 327 327 327 327 326 328 326 324 323 325 326 325 324 321 322 317 316 319 319 313 322 324 323 326 328 328 326 326 328 328 327 326 326 325 324 323 322 321 321
325 327 328 329 329 329 329 331 330 331 332 333 333 332 330 330 329 328 327 325 325 325 329 330 331 331 330 329 330 332 332 332 331 331 330 330 329 329 329 329 329 329 329 328 328 328 328 328 328 327 327 327 327 323 323 323 324 324 324 322 322 319 323 320 315 317 314 320 322 323 325 327 326 326 327 327 327 326 325 325 323 322 320 320 320
323 325 325 325 326 326 328 329 329 331 332 333 332 332 330 330 329 328 326 325 325 323 326 328 329 331 330 329 329 329 331 332 331 330 330 330 329 329 328 329 329 329 330 328 328 328 329 329 329 328 328 328 327 325 324 324 322 322 323 321 321 319 323 320 322 318 316 314 316 319 317 322 325 326 326 326 326 325 324 323 322 320 320 318 318
322 321 321 322 324 326 327 327 328 330 332 332 332 332 331 330 326 324 324 325 325 324 326 327 327 329 328 327 327 328 329 330 331 330 329 330 330 328 328 328 328 329 330 329 328 329 328 328 327 326 326 327 327 327 325 323 323 322 320 318 318 320 320 319 321 319 318 315 315 317 317 318 321 320 321 323 325 325 325 324 323 320 320 318 317
320 319 320 321 323 325 324 324 325 329 332 332 332 332 331 330 324 324 324 323 324 323 325 326 326 326 326 326 326 327 327 328 329 329 329 329 329 329 328 327 327 328 330 329 328 328 328 328 328 327 327 326 327 326 325 325 324 323 323 320 318 317 319 318 318 317 316 318 315 316 318 318 317 318 318 321 323 324 324 323 323 320 318 317 315
320 320 319 321 323 323 322 322 323 326 329 330 331 331 331 326 324 323 323 323 323 323 323 323 325 325 325 326 325 327 327 327 328 328 328 328 328 329 328 328 328 329 329 330 328 328 329 328 328 328 327 327 326 325 325 325 324 323 323 322 321 320 319 318 317 318 318 314 315 316 314 318 319 316 316 317 322 323 323 322 321 319 318 316 314
Wind_Speed
8 10 10 13 13 14 16 18 18 18 18 16 16 17 16 16 17 18 19 19 20 20 20 20 20 20 22 21 22 20 19 19 19 19 19 18 17 17 18 18 18 19 18 19 19 18 18 19 19 19 19 19 20 19 20 20 19 18 17 17 17 17 18 15 16 17 17 16 15 14 14 15 15 16 17 16 16 17 17 17 15 11 9 13 17
11 10 9 10 14 14 16 18 19 19 19 18 17 17 18 17 18 19 19 20 20 20 20 20 20 20 21 20 21 20 19 19 19 19 19 18 16 17 19 18 17 19 19 19 19 19 19 19 19 20 20 19 20 20 21 21 20 17 17 17 17 18 17 15 14 16 15 14 15 16 15 15 16 16 17 18 17 18 17 17 17 9 8 16 17
10 10 9 11 16 15 16 18 19 19 19 18 18 16 16 16 18 19 19 19 19 20 20 20 20 20 20 21 20 19 19 19 19 19 19 18 18 17 17 18 18 18 19 19 18 18 19 19 19 19 20 20 21 21 21 20 19 18 16 16 18 13 14 17 17 15 14 14 16 17 16 16 15 15 17 18 19 18 17 17 16 15 11 17 16
11 9 8 13 17 15 15 17 18 19 19 19 18 17 16 16 17 17 18 18 18 18 18 19 19 19 20 19 19 20 20 19 19 19 18 17 18 18 18 18 18 18 18 18 18 19 20 19 19 19 19 19 20 20 19 19 18 17 16 16 16 16 15 16 14 15 16 17 15 11 6 6 10 15 17 18 19 20 18 18 18 18 18 17 18
11 9 9 9 11 14 16 17 17 19 19 19 18 18 17 16 17 17 17 17 17 18 18 18 19 19 19 20 20 20 20 20 19 19 18 18 17 18 18 18 18 18 18 17 17 17 18 18 18 18 17 18 18 17 16 16 16 16 16 16 17 17 17 17 17 17 17 16 14 9 6 7 7 17 17 19 18 18 17 18 17 17 16 17 18
10 9 8 9 9 12 16 16 19 20 19 19 18 17 17 17 17 17 16 16 17 17 18 18 18 18 19 20 20 21 20 19 19 18 17 18 15 17 18 18 18 18 17 17 17 16 16 17 17 16 16 16 16 15 15 14 13 15 15 16 17 16 16 17 17 16 16 14 12 6 7 7 7 9 17 17 17 16 17 16 16 15 15 17 17
12 9 8 9 8 11 16 17 19 19 19 19 18 18 17 16 16 16 15 16 17 17 17 17 17 17 18 19 19 20 19 20 20 19 18 17 16 15 17 18 18 17 17 17 17 16 16 15 15 15 16 15 14 14 14 13 11 13 15 16 15 15 16 16 16 16 14 8 6 6 6 7 6 7 15 15 16 16 16 15 15 15 15 15 14
9 8 8 8 7 12 16 17 19 19 19 19 19 18 17 16 16 16 16 16 15 15 16 16 16 17 17 18 18 19 19 19 18 18 17 17 17 17 16 16 17 18 17 17 16 16 15 15 15 15 14 14 14 14 13 13 11 13 15 15 15 15 15 16 16 15 13 7 7 6 6 6 6 6 14 15 15 14 15 16 15 15 16 16 14
9 9 8 8 8 17 16 16 18 19 19 18 18 18 17 17 16 16 15 15 14 15 15 16 16 16 16 16 17 18 17 18 18 18 17 16 16 17 16 15 15 15 15 13 14 14 15 14 14 14 14 14 14 13 13 14 13 15 16 15 14 15 15 15 14 13 8 6 7 6 6 6 6 6 14 16 16 16 16 13 14 16 17 16 15
9 8 8 7 9 14 15 15 16 19 19 19 18 18 17 17 16 16 15 15 14 14 14 15 16 16 15 16 16 16 16 17 17 17 15 16 16 16 17 16 16 16 16 15 15 15 14 14 13 14 15 14 14 13 14 15 16 17 16 15 14 14 14 14 13 10 6 6 6 6 6 5 3 6 14 17 17 16 15 15 12 12 13 16 16
9 8 7 8 11 14 15 15 16 17 18 18 18 18 17 16 15 15 15 15 14 13 14 15 15 15 15 15 15 16 16 16 17 16 15 15 15 15 16 16 15 14 15 16 15 14 14 13 14 15 15 14 14 14 15 16 16 16 15 15 14 14 14 13 10 5 6 6 6 6 6 9 7 7 15 16 16 17 17 16 16 16 16 16 17
9 8 7 7 13 13 15 15 15 15 17 18 18 18 17 16 16 16 15 15 14 13 13 13 12 14 15 14 15 15 15 15 16 15 14 13 14 15 15 15 15 15 15 15 15 14 14 14 14 15 15 15 15 15 15 15 15 15 15 15 14 14 14 12 7 6 6 6 6 6 7 6 7 12 17 16 16 16 17 16 18 17 17 17 16
8 8 8 7 8 12 14 15 15 16 16 17 17 16 16 16 15 15 14 12 13 12 13 13 11 12 13 13 14 14 14 14 14 13 13 13 14 13 13 14 14 14 14 15 14 14 14 14 15 15 15 15 15 15 15 15 14 15 15 15 15 15 13 12 6 6 6 6 6 6 7 6 7 14 15 15 15 15 15 16 16 15 16 16 15
9 9 7 8 7 14 12 13 14 15 16 15 15 14 15 15 14 13 12 12 12 12 11 11 10 11 12 12 12 12 13 12 13 13 13 13 13 12 12 13 13 13 14 14 14 14 14 15 15 15 15 15 15 16 15 15 14 14 15 15 15 14 14 10 7 6 6 6 6 8 7 7 8 14 14 14 15 15 15 14 14 15 15 15 15
10 10 8 8 8 9 15 13 13 14 14 14 14 14 14 13 12 12 11 12 12 11 11 11 10 11 12 12 11 11 11 12 12 12 12 12 12 11 10 11 12 13 13 13 13 14 14 14 14 14 14 14 15 15 14 14 14 14 15 14 14 13 12 6 5 5 6 6 6 6 5 4 13 12 15 14 14 14 14 14 14 14 13 14 14
8 10 10 8 8 8 8 15 15 14 14 14 14 15 14 12 12 12 11 11 11 11 11 10 10 11 11 11 11 11 11 11 11 12 11 11 10 11 10 10 11 12 13 12 12 13 14 14 13 13 14 15 15 15 14 14 13 14 14 14 13 13 12 7 5 6 6 6 6 6 6 8 13 13 13 15 14 13 14 14 14 14 14 14 14
8 9 10 9 9 7 8 8 12 17 13 13 14 13 12 12 11 12 11 11 12 11 11 11 11 11 11 11 10 10 12 12 12 12 11 10 9 9 9 9 10 12 12 11 12 13 13 14 14 13 14 15 15 14 14 14 13 14 14 13 13 12 11 8 6 6 6 6 5 5 6 7 13 14 14 14 14 14 14 15 15 14 14 14 15
8 8 9 9 8 7 7 7 9 9 8 10 12 12 11 11 11 11 11 11 11 11 11 11 11 12 12 11 11 12 13 12 12 11 11 9 9 9 9 9 10 11 11 12 12 13 14 15 14 14 14 14 14 15 15 14 14 14 14 13 13 12 12 9 6 5 5 5 5 5 5 8 11 13 13 13 13 14 14 13 13 13 14 14 14
8 10 8 9 8 7 6 5 6 5 6 5 6 10 13 12 11 11 11 11 11 11 11 11 12 12 12 13 13 13 12 13 12 11 10 9 9 9 8 8 10 11 12 12 12 12 13 14 14 13 13 13 14 15 15 15 14 14 14 13 12 12 12 7 5 5 5 5 5 5 5 7 10 13 13 13 13 13 12 13 14 14 14 14 13
7 8 8 7 8 8 6 5 5 5 5 5 6 6 12 13 12 12 12 12 13 13 12 11 13 12 13 13 13 10 11 10 14 10 10 9 8 7 9 8 9 11 12 12 11 11 14 14 13 12 13 14 15 15 15 15 14 14 14 13 12 11 6 5 6 6 5 5 4 4 8 10 11 12 13 13 13 13 13 13 12 13 14 14 13
6 7 5 6 7 8 7 5 5 6 6 6 5 6 9 13 11 12 14 13 13 14 12 12 12 11 10 10 9 5 5 6 6 6 9 4 5 8 8 8 9 11 11 12 11 12 13 13 11 11 12 14 14 15 14 14 14 14 14 13 11 6 4 5 5 5 4 4 5 5 10 11 12 12 12 12 12 12 12 13 13 13 13 13 12
6 6 6 6 6 6 7 7 5 6 6 5 4 5 6 9 5 5 5 8 11 11 9 6 7 4 10 7 5 5 5 5 5 7 5 5 4 7 8 8 9 10 11 12 11 12 12 12 12 11 11 13 14 7 8 12 14 13 13 11 6 5 5 5 5 5 4 4 4 8 12 11 11 11 12 11 11 11 12 12 12 13 13 13 13
6 5 5 6 5 5 6 7 6 7 7 6 5 4 6 5 6 5 5 8 7 6 5 6 3 4 5 5 5 5 5 5 5 6 5 7 4 6 8 7 8 9 11 12 11 12 12 13 13 11 11 11 7 6 6 6 7 12 10 6 5 5 5 5 5 4 5 5 5 10 10 11 11 11 11 11 11 11 11 11 11 11 12 13 12
7 6 6 4 6 5 7 8 8 7 7 6 5 5 5 4 5 5 5 5 5 4 4 5 5 5 5 4 4 5 5 5 9 11 8 5 5 6 8 7 7 9 10 8 12 12 12 13 13 11 8 5 6 6 6 6 6 5 5 5 5 4 5 4 4 4 5 5 5 10 11 12 10 10 10 11 11 10 10 11 11 11 11 12 12
8 7 6 6 7 7 8 8 7 7 7 6 6 5 5 5 4 4 5 4 4 4 5 3 5 5 5 4 5 5 5 5 5 4 4 4 4 4 5 5 5 5 6 5 6 6 5 7 6 6 6 6 7 6 7 7 5 5 5 4 4 4 4 4 4 4 4 3 4 10 11 10 11 10 11 10 10 9 9 9 9 10 10 10 11
7 8 8 8 8 9 9 7 7 6 6 5 5 7 8 5 5 5 5 4 4 4 5 4 5 5 5 5 5 5 5 5 5 5 4 5 5 3 4 5 5 4 4 4 5 5 5 5 6 6 5 5 6 6 6 7 6 5 5 4 4 4 4 4 4 3 3 3 5 10 8 7 8 10 10 10 10 9 8 9 9 9 10 10 10
7 6 7 6 7 8 9 8 8 7 8 7 6 7 6 6 5 5 6 6 6 5 5 6 5 5 6 6 6 6 5 5 5 5 5 4 5 4 3 4 5 4 3 4 5 5 5 5 6 6 5 6 6 6 6 6 6 6 5 5 4 4 4 4 4 3 2 2 5 9 8 8 9 9 9 9 9 9 9 8 8 8 8 8 9
7 8 8 6 7 9 9 10 9 9 8 8 7 7 7 7 7 8 7 9 8 7 6 6 6 6 6 5 5 4 5 6 6 5 4 4 5 4 3 4 5 4 2 4 6 6 5 5 6 6 6 6 6 6 6 6 6 6 6 5 5 4 4 4 3 3 2 3 4 7 7 6 6 8 9 9 9 9 9 8 7 7 7 8 8
6 8 9 9 9 9 9 9 9 10 9 9 8 6 8 8 7 7 7 8 5 6 6 6 6 5 6 6 6 6 5 5 6 5 4 5 5 5 4 4 4 4 2 3 5 6 5 5 5 5 5 6 6 6 6 6 6 5 5 5 4 4 4 4 3 3 3 3 3 5 8 7 6 7 8 9 9 8 8 7 7 7 7 7 8
9 7 7 7 8 9 11 12 11 10 9 9 8 7 9 9 8 7 7 7 6 6 6 5 5 6 5 6 7 6 6 7 6 5 5 5 5 5 5 5 4 4 4 4 4 6 6 4 5 5 6 6 6 5 6 6 5 5 5 5 4 4 4 4 3 3 2 2 3 4 6 5 5 5 7 7 8 8 7 7 7 7 8 8 8
7 7 7 7 7 9 10 12 11 11 9 10 9 9 9 9 7 6 6 7 6 6 6 6 5 5 5 6 5 5 5 5 6 6 5 5 4 5 5 4 4 4 4 5 4 5 5 5 5 6 6 6 5 5 6 6 5 5 5 5 5 4 4 4 3 3 3 3 3 3 5 8 7 6 5 6 7 7 7 7 7 7 8 8 8
8 10 8 6 8 9 9 9 9 9 10 10 10 9 9 8 8 7 7 7 7 5 5 6 6 5 5 5 5 5 5 5 5 6 6 6 5 5 5 5 5 4 4 5 5 4 5 4 5 5 5 6 5 5 4 6 5 5 5 6 5 4 4 4 4 3 3 4 4 3 5 6 10 10 10 9 6 6 7 7 7 7 7 7 8
6 6 7 9 10 10 8 8 7 8 10 10 8 7 7 7 8 8 7 7 7 7 6 5 5 5 5 7 7 6 5 6 5 6 6 6 5 5 4 4 4 4 4 5 6 6 6 5 5 4 5 6 6 5 5 4 5 5 5 5 5 5 4 4 4 4 4 4 4 4 4 5 6 9 9 9 8 7 5 4 5 6 7 8 7
7 5 6 10 10 8 7 5 7 8 7 3 4 5 6 7 7 7 7 7 6 6 6 5 5 5 6 7 7 7 6 6 6 5 5 5 5 5 5 5 4 4 4 4 5 5 6 6 6 5 5 5 6 6 6 6 4 5 5 5 4 4 4 4 4 4 4 3 3 4 4 5 5 5 6 10 9 7 5 4 3 3 4 5 5
5 5 10 11 9 8 6 6 6 3 4 4 5 6 7 6 7 6 6 7 7 6 6 6 6 6 5 5 6 6 6 6 5 6 5 5 5 5 5 5 5 5 5 4 5 4 5 6 6 6 5 5 5 5 6 6 7 6 5 5 5 4 4 4 3 4 4 3 3 4 4 4 4 4 4 5 8 8 6 5 3 3 2 4 2
10 11 9 6 8 6 6 7 6 5 4 4 4 6 7 7 6 6 5 6 6 7 6 7 6 5 5 5 5 6 6 6 6 6 5 5 5 5 5 5 6 5 5 5 5 5 5 5 4 7 6 5 6 5 4 6 6 6 5 4 4 5 4 4 4 4 3 3 3 3 3 3 4 4 4 4 4 6 8 6 5 4 3 3 2
10 9 9 7 7 5 6 6 7 8 6 6 6 6 5 6 6 7 7 7 7 7 7 7 7 7 6 5 5 5 6 6 7 7 6 6 5 5 5 6 6 6 6 6 5 5 6 5 4 3 6 6 6 8 5 5 6 6 5 4 3 4 3 3 4 3 3 4 3 3 3 4 3 4 4 4 3 3 6 8 8 6 4 3 2
8 8 8 8 6 4 5 5 4 6 7 8 8 6 5 5 5 5 7 7 7 6 6 7 7 6 5 5 4 4 4 6 7 7 6 5 5 4 4 6 6 6 5 6 6 5 5 6 6 4 4 6 6 8 8 6 5 5 4 4 5 5 4 2 4 4 3 4 3 3 3 3 3 3 3 3 3 4 3 5 7 7 6 4 2
6 7 6 5 1 3 3 4 5 6 6 7 7 6 5 3 3 4 5 5 5 5 5 6 6 6 6 6 5 4 4 5 6 6 6 5 5 4 5 5 5 6 6 6 6 6 5 5 7 5 4 4 6 7 8 6 6 5 4 4 4 3 4 3 3 4 3 3 3 3 3 3 3 3 3 3 3 3 4 4 3 3 4 7 5
5 4 4 3 2 2 3 4 5 4 3 5 6 6 4 5 5 4 5 5 5 5 5 5 4 6 6 5 1 1 1 4 5 5 6 5 5 5 5 5 5 6 7 7 6 7 7 7 7 7 7 6 6 6 8 7 6 7 5 5 4 1 4 4 3 3 3 3 3 3 3 3 3 3 3 2 3 4 4 4 3 3 3 5 7
4 4 5 5 4 4 4 6 4 3 5 4 5 6 6 5 4 7 7 7 6 6 6 5 4 4 5 6 6 5 6 5 5 6 6 5 6 5 6 6 6 6 7 8 8 8 7 6 7 5 7 8 7 7 6 7 8 5 4 5 5 3 4 3 4 3 3 3 2 3 3 3 3 3 2 2 4 4 4 4 4 3 3 3 4
5 4 6 5 4 2 2 2 2 2 1 1 2 4 5 6 5 5 5 5 6 6 6 5 5 4 5 6 7 7 6 5 6 5 3 5 6 6 7 7 7 6 5 3 5 8 8 7 7 6 4 7 7 8 7 8 3 5 6 4 3 3 4 4 3 3 2 2 3 3 4 3 3 3 3 3 3 4 4 3 3 3 3 3 3
4 4 4 5 5 5 5 5 5 4 4 2 2 2 2 3 4 2 4 2 1 1 2 2 4 4 6 7 8 6 7 6 5 5 7 6 7 7 7 7 7 6 6 6 6 7 9 10 10 8 7 4 5 6 9 4 6 5 5 4 3 3 2 3 2 2 3 2 3 4 3 3 5 3 3 3 3 4 3 3 3 3 3 3 3
6 7 7 7 6 6 7 7 6 5 5 4 4 4 2 2 1 0 1 1 0 1 1 2 3 4 4 8 7 7 7 7 7 7 6 7 7 8 7 7 7 7 8 8 8 7 9 8 8 9 9 9 6 6 6 4 6 9 6 2 3 2 3 3 3 1 2 2 3 3 3 4 4 4 3 3 3 3 4 3 4 3 3 3 3
6 6 7 9 7 9 9 7 6 7 4 4 3 3 3 3 2 2 2 2 2 3 3 3 5 5 6 7 7 6 7 7 8 8 8 8 7 5 6 7 7 7 7 7 8 9 10 9 10 10 10 10 9 5 6 4 7 3 5 5 3 2 2 3 4 1 2 2 2 3 4 4 5 4 4 3 3 3 3 4 3 3 3 3 3
4 5 5 5 4 4 6 4 2 4 3 1 1 1 2 2 1 1 2 2 3 2 6 5 4 6 7 4 4 7 7 7 6 7 7 7 8 8 6 7 7 5 2 3 6 7 9 9 11 11 10 9 11 9 7 4 6 3 3 1 4 5 6 5 5 4 1 1 1 2 3 5 4 4 4 4 5 4 3 4 3 3 3 3 3
5 4 3 3 5 5 3 3 2 5 4 3 4 4 3 3 3 3 3 3 3 3 2 1 4 4 5 7 7 5 6 8 8 6 5 5 5 5 6 6 7 8 8 6 4 8 10 10 9 9 10 8 8 10 11 8 5 4 3 1 3 1 7 8 6 4 5 2 0 2 2 4 4 4 5 5 5 5 3 3 4 3 3 2 3
4 1 4 4 2 2 4 1 3 2 4 3 4 5 5 3 0 3 5 5 4 4 6 4 2 3 4 7 6 5 6 6 6 6 8 9 7 6 6 6 7 8 8 8 9 8 8 7 10 10 9 10 11 11 10 9 10 7 4 3 1 1 5 4 5 5 5 8 4 1 2 1 3 4 5 5 6 5 5 4 3 3 2 2 2
5 6 6 3 1 4 5 2 2 4 6 7 6 5 4 3 4 6 3 4 6 8 7 3 3 3 3 3 7 5 5 5 5 6 6 7 8 7 6 6 7 7 7 7 7 6 10 11 9 8 9 9 9 9 10 10 8 7 6 2 3 3 4 2 6 3 4 7 2 5 5 2 1 1 3 2 4 3 4 4 4 3 3 2 2
3 2 5 3 4 7 3 4 1 2 5 7 6 6 5 4 7 5 11 12 7 2 2 5 4 3 5 5 4 6 6 4 5 5 3 5 8 8 8 7 6 4 5 8 8 8 9 10 11 11 10 10 7 8 10 9 9 6 7 6 5 4 5 3 4 5 2 1 5 9 8 7 6 2 1 3 4 5 4 4 4 3 3 2 2
9 5 2 4 4 3 4 6 2 1 2 3 4 6 7 7 9 12 13 10 4 6 6 5 4 7 7 6 7 6 7 8 6 6 5 5 6 8 8 9 8 8 8 7 9 10 9 10 10 10 10 11 8 8 7 7 7 7 7 7 7 9 8 8 8 8 6 5 3 5 3 6 6 5 3 1 3 4 3 3 4 3 3 2 1
Wind_Direction
156 141 136 138 132 130 126 124 121 116 114 112 113 117 118 116 112 112 111 111 112 113 115 116 117 119 119 118 118 119 120 120 119 118 116 115 114 113 110 108 105 104 103 102 96 89 88 89 88 87 89 89 88 86 86 83 82 79 83 83 84 83 82 78 81 74 73 75 73 77 78 80 83 86 90 84 80 75 69 66 62 61 63 68 70
149 140 133 134 130 131 127 125 123 120 117 116 115 118 120 118 116 116 115 115 116 117 119 119 120 121 120 118 119 119 120 119 117 117 118 118 116 111 113 112 109 104 104 101 96 92 89 88 87 87 88 89 89 86 83 82 83 81 83 84 84 83 85 92 79 78 79 78 81 75 70 72 73 79 86 90 86 78 72 70 69 65 66 67 67
129 134 133 135 134 131 127 127 125 120 118 118 120 118 117 116 117 116 117 117 119 121 122 123 124 124 121 120 121 121 121 122 123 121 120 120 117 113 113 112 109 107 107 105 96 90 91 90 88 85 87 84 84 81 81 82 83 84 82 83 83 82 90 83 84 84 86 87 82 81 77 71 71 72 76 79 78 77 77 75 73 71 67 66 66
132 131 133 135 131 131 130 128 125 122 121 120 120 119 117 116 116 116 117 118 121 122 124 125 125 123 122 122 123 125 124 122 117 117 116 116 116 116 113 114 115 112 111 108 104 101 96 95 92 89 85 84 84 82 78 76 80 84 93 92 93 95 83 86 90 87 81 75 68 64 68 81 79 79 76 74 74 73 72 72 72 72 71 71 70
130 131 133 130 131 133 132 130 125 123 121 120 120 119 116 117 118 117 119 121 123 123 124 125 125 124 123 125 126 125 122 120 120 121 122 120 117 116 117 118 117 114 111 108 106 103 99 95 90 86 84 83 82 75 69 74 79 80 83 82 83 80 78 77 76 75 73 69 61 50 32 47 62 65 68 68 69 70 70 70 71 71 73 72 74
129 130 129 128 133 136 132 129 127 125 122 121 120 119 118 119 119 121 122 123 124 124 125 127 126 125 126 128 129 126 125 122 121 119 118 118 117 119 118 117 116 116 113 113 111 106 102 95 94 90 86 83 77 71 68 70 75 84 83 85 83 79 80 79 76 72 68 64 58 44 38 32 43 59 69 70 70 71 74 76 77 76 75 75 76
128 127 127 131 135 137 132 130 127 124 124 122 123 121 121 119 124 124 124 124 125 127 127 127 129 128 129 129 128 126 126 125 124 123 122 119 114 113 118 119 119 118 118 116 114 109 107 103 96 90 88 79 72 69 71 75 79 90 90 86 84 85 84 79 75 72 68 61 50 49 45 43 48 70 76 77 79 78 80 83 84 84 85 87 87
120 128 132 133 138 137 134 131 129 126 125 125 124 124 122 125 126 127 124 127 126 127 129 130 130 131 129 128 129 128 127 125 123 124 125 123 120 119 115 113 119 121 121 119 116 111 108 104 97 92 83 76 71 71 75 80 88 101 98 92 86 85 82 79 78 74 69 63 61 65 57 51 48 68 84 82 85 90 91 84 78 80 80 76 65
126 128 129 134 139 138 133 129 128 126 125 124 125 126 125 125 128 125 126 127 127 129 130 131 133 132 129 130 130 127 125 124 123 123 122 121 120 118 115 116 116 117 116 110 110 110 106 103 98 91 84 78 75 76 82 83 93 108 105 96 92 87 82 81 80 76 73 72 75 77 77 74 77 90 92 91 89 81 78 76 77 80 80 81 83
128 124 126 132 135 133 129 128 128 127 126 128 127 125 127 129 130 128 130 129 129 130 132 133 133 132 130 131 129 128 127 124 123 121 112 111 110 108 108 109 113 115 117 117 115 112 109 104 98 92 85 82 82 86 89 88 98 106 104 99 93 86 84 84 80 76 72 70 73 80 86 80 83 92 90 94 93 90 86 91 91 84 78 78 78
123 121 126 128 133 130 128 128 128 129 129 128 127 129 131 131 128 132 134 133 132 131 133 135 133 131 130 132 131 131 128 126 123 115 108 112 113 112 112 113 114 117 119 120 120 117 110 104 97 91 87 89 91 95 95 95 100 101 101 97 92 88 86 83 75 64 64 65 61 47 47 67 81 84 87 85 84 82 81 78 82 79 76 73 71
122 120 120 126 132 126 128 129 129 128 129 128 129 131 132 131 133 135 135 136 134 133 133 134 133 133 133 134 133 132 127 126 124 118 118 119 118 116 114 113 114 115 121 122 120 115 108 103 97 92 92 97 100 102 101 99 100 100 99 97 95 93 90 84 74 60 54 51 50 43 50 56 67 87 90 91 86 86 86 81 76 75 74 73 72
115 113 117 119 119 125 126 129 128 130 130 129 129 132 134 135 138 139 139 139 136 135 134 133 134 137 134 135 134 130 126 125 125 124 125 126 121 115 114 113 111 112 116 119 116 112 106 100 95 94 97 102 107 108 105 104 104 104 102 101 99 98 93 84 70 68 61 57 45 45 52 49 77 85 83 84 82 78 78 76 76 74 71 70 71
114 115 119 116 121 128 125 126 128 132 133 133 133 131 136 142 144 142 139 138 137 135 131 129 131 133 131 132 132 130 129 127 128 128 130 127 117 112 113 113 111 112 113 113 111 108 101 97 96 96 100 112 115 114 110 108 107 106 103 101 102 99 93 84 77 67 61 58 64 64 64 73 80 82 83 84 82 79 77 78 77 75 72 70 68
119 123 120 121 129 132 132 127 130 134 136 136 135 135 140 145 141 137 135 133 133 133 131 127 125 128 128 127 128 129 133 135 134 128 125 116 111 113 114 113 112 112 112 110 108 102 99 97 97 98 104 119 121 116 113 110 108 105 102 101 99 95 90 81 79 75 73 69 64 63 57 67 78 77 81 82 85 83 82 80 78 76 76 74 71
119 124 123 122 127 134 136 140 136 136 139 140 141 142 144 141 136 134 132 132 133 134 131 128 127 127 126 126 131 138 138 132 125 121 117 112 114 117 115 113 114 114 111 110 104 100 98 97 96 101 112 122 121 117 113 110 106 103 101 100 98 96 91 85 80 78 79 71 68 65 67 87 92 90 86 87 86 85 82 80 79 77 76 75 74
118 122 124 125 126 133 136 140 146 142 143 145 145 141 138 133 133 133 132 133 137 135 133 132 130 129 127 130 131 126 123 119 125 119 115 115 116 115 113 111 114 115 112 107 103 102 99 96 95 103 110 121 121 116 111 107 105 105 103 101 98 94 88 84 76 73 73 77 77 72 75 78 91 93 92 90 86 85 84 78 75 76 74 73 74
118 126 126 127 129 133 136 143 147 142 141 141 135 131 131 130 131 130 130 134 137 136 134 133 134 134 134 133 132 128 122 120 123 119 117 118 115 113 109 113 114 113 110 107 104 102 99 96 97 101 105 114 117 112 107 106 106 105 104 102 101 95 91 83 74 73 74 72 68 78 81 95 95 91 93 88 84 80 80 82 83 80 77 73 71
131 137 128 131 134 133 127 125 130 127 126 120 132 142 132 133 132 133 134 139 138 137 137 137 139 139 138 141 138 129 127 126 128 123 120 121 118 108 106 109 111 112 107 105 104 103 98 95 97 98 94 99 108 108 108 108 107 106 104 102 97 90 83 73 66 78 76 72 77 83 95 107 107 97 89 87 89 91 89 85 82 81 82 85 85
134 134 133 132 134 130 119 114 106 106 110 112 129 137 140 143 141 141 146 145 145 141 140 142 145 145 145 142 138 137 138 136 132 127 128 125 116 112 110 108 112 109 106 103 103 101 95 93 93 94 96 99 105 107 108 108 107 107 105 100 93 81 69 70 76 74 78 80 78 84 105 103 97 95 96 96 94 91 91 90 89 88 84 83 80
135 131 125 125 124 126 110 111 113 113 116 120 129 138 149 145 147 151 152 149 148 147 141 145 149 150 144 137 128 118 118 124 123 123 125 114 118 117 110 111 109 111 104 103 101 96 94 93 89 93 102 108 109 108 106 107 108 108 105 98 89 78 81 78 78 76 70 73 88 101 99 89 81 88 97 97 96 92 92 96 92 89 86 82 82
132 124 118 118 117 124 115 118 117 117 112 114 136 138 146 139 130 145 147 149 151 149 143 143 144 131 145 129 115 117 110 117 123 120 110 126 126 116 108 105 109 106 105 101 98 94 93 90 93 99 104 116 112 102 101 105 107 104 102 96 85 85 72 76 85 80 66 62 88 94 94 97 104 101 90 89 95 98 94 88 89 88 89 87 84
130 128 127 122 113 118 119 119 120 124 119 122 130 138 131 129 133 135 145 149 150 139 134 133 98 111 105 115 110 106 111 114 118 129 117 124 123 114 108 106 105 108 107 103 98 94 90 87 91 98 101 98 97 101 95 92 101 104 96 87 83 82 86 81 77 78 85 78 82 107 112 106 100 101 104 102 97 93 91 91 90 93 91 91 92
148 152 140 121 115 123 121 125 134 140 137 134 127 129 128 126 131 128 128 134 123 137 121 131 117 108 109 107 114 114 116 127 149 136 129 116 123 116 112 106 103 109 102 101 100 92 83 79 85 91 93 96 106 100 95 87 90 91 93 91 84 86 83 85 76 74 81 90 100 112 105 97 100 104 102 98 97 99 99 99 98 93 93 93 90
148 140 133 139 133 134 127 140 144 141 136 137 139 138 129 124 110 115 120 119 105 99 116 95 122 115 117 122 125 122 119 110 103 92 88 105 92 81 73 62 56 56 69 75 74 76 74 79 73 78 95 112 111 109 111 107 104 103 100 93 90 84 80 77 81 77 78 106 130 108 108 117 120 113 106 105 101 98 99 96 96 95 95 96 97
143 151 159 150 152 148 151 147 141 143 143 138 139 142 140 144 140 142 132 126 125 133 123 145 123 128 130 133 131 129 123 116 114 116 104 112 108 94 89 88 74 59 63 78 88 91 85 84 85 90 94 103 110 115 118 124 121 109 103 97 91 84 91 82 80 81 89 78 103 108 110 106 105 111 110 108 109 106 101 99 99 99 101 100 99
160 165 163 161 150 155 152 150 152 151 146 145 144 147 149 151 144 150 145 145 152 145 151 141 136 135 138 147 149 149 142 133 135 138 138 126 119 106 105 100 96 83 76 100 95 98 103 100 91 96 107 110 106 103 110 111 121 121 108 100 97 93 88 94 88 92 61 90 118 122 128 128 122 119 115 114 116 115 109 105 104 105 100 98 95
162 162 161 160 163 164 158 160 160 157 155 158 146 156 153 156 161 166 164 168 162 165 164 151 149 156 156 154 151 145 149 147 150 147 146 133 125 117 124 115 108 99 83 114 110 108 112 101 101 106 109 112 114 109 108 110 116 118 112 103 100 96 93 93 93 82 53 70 95 120 114 107 105 112 120 119 118 116 116 115 114 109 106 103 100
185 173 168 166 172 171 166 166 167 165 163 166 159 159 158 164 167 167 167 174 166 165 165 146 156 154 152 148 151 156 161 150 153 150 146 147 128 131 138 130 122 124 120 101 116 118 119 116 107 108 113 117 117 118 118 113 114 117 115 112 109 108 103 93 91 78 58 52 103 121 116 114 118 116 116 121 125 123 121 121 118 112 108 100 94
194 171 166 177 175 172 175 178 176 172 167 166 169 165 164 173 174 171 169 163 166 167 165 156 161 156 158 160 167 167 166 166 160 148 156 151 143 138 140 144 149 137 132 126 120 127 131 122 109 108 112 119 122 133 127 123 118 119 118 119 120 119 109 107 95 82 57 60 43 79 76 72 127 129 126 124 122 124 122 126 123 117 111 108 104
180 177 183 181 183 183 185 185 179 173 169 173 172 175 171 175 172 166 159 162 163 164 171 166 171 165 164 162 164 167 159 163 164 151 160 151 149 148 149 147 153 162 147 132 123 132 138 136 133 129 127 125 123 132 132 126 123 121 127 128 130 122 104 98 87 81 83 59 44 29 69 81 93 96 96 116 125 122 127 127 121 120 119 117 116
196 190 184 173 184 197 197 192 182 177 175 177 176 176 176 169 166 170 166 154 151 162 172 165 176 176 164 158 160 167 164 158 165 155 160 157 159 159 156 164 174 162 159 134 126 125 124 118 107 109 112 115 118 107 116 129 130 131 132 131 126 123 109 104 97 92 79 60 66 46 60 76 94 86 78 67 66 112 128 127 129 128 126 127 127
212 195 179 174 192 196 194 193 185 189 187 182 174 170 165 169 170 175 168 155 158 164 173 170 177 174 163 168 171 171 165 158 166 171 162 163 162 158 159 175 175 158 156 138 127 128 121 115 107 110 103 108 112 114 106 108 132 139 135 132 130 126 111 104 105 95 77 80 73 79 69 71 73 78 81 80 79 82 76 98 126 138 144 147 147
196 195 180 197 195 195 183 181 194 195 190 151 152 159 168 172 174 174 168 158 158 159 166 174 183 180 182 181 171 172 166 162 161 168 160 158 159 165 167 172 170 157 143 141 136 135 128 125 133 127 131 123 127 130 129 129 129 133 134 134 131 134 120 106 105 97 89 90 84 85 83 80 81 77 73 72 68 63 66 81 93 121 136 143 142
207 209 206 203 198 195 170 180 194 169 172 154 158 164 180 180 177 173 170 162 157 164 169 170 184 188 191 197 178 169 163 158 160 157 158 161 167 171 175 173 159 151 146 153 142 132 127 131 139 122 109 106 118 126 131 141 143 142 140 139 140 136 113 112 108 110 102 98 94 86 86 79 77 78 73 71 62 65 67 67 99 130 138 129 153
204 209 210 196 209 205 184 184 166 147 147 147 151 172 188 185 179 175 158 165 165 172 174 175 176 176 192 202 191 174 165 160 154 154 164 175 174 180 169 159 161 150 148 144 136 140 133 129 137 134 123 128 129 123 131 141 140 138 135 135 141 139 120 115 126 117 101 97 92 90 83 82 75 72 71 70 64 54 55 64 64 84 142 146 155
207 212 209 205 210 181 200 201 168 154 150 145 169 189 189 186 183 177 169 169 175 179 178 173 170 179 188 197 198 185 169 162 156 164 170 179 181 179 157 159 158 153 152 150 150 150 144 139 138 148 139 146 142 139 139 141 137 131 125 123 108 76 61 131 133 122 106 93 93 90 88 80 68 67 67 66 66 66 46 49 53 61 67 127 167
214 220 221 212 207 162 192 197 148 164 164 163 176 183 192 190 189 183 176 177 182 179 175 169 171 169 168 201 205 191 178 169 164 164 167 173 178 175 148 147 149 150 150 154 154 148 147 145 139 128 140 137 144 147 147 138 128 120 105 100 107 127 154 164 137 128 109 119 105 95 96 86 76 71 68 67 65 68 61 44 46 39 48 63 149
227 227 233 241 169 137 164 197 187 180 169 160 170 172 177 185 167 173 181 187 187 182 175 176 172 160 172 193 203 198 184 178 171 164 160 164 162 157 151 156 149 149 145 148 139 143 141 141 146 128 117 127 143 146 143 136 122 111 103 107 115 140 124 142 129 128 127 130 135 127 112 87 90 74 76 75 70 72 68 59 49 41 25 42 51
241 241 242 252 231 157 168 203 202 190 177 164 158 163 168 183 178 177 192 198 196 192 187 190 160 173 178 151 88 345 299 216 178 168 164 163 160 165 161 155 159 153 156 156 156 161 157 146 146 142 128 118 125 133 134 125 107 100 97 77 71 70 130 119 121 124 130 139 142 142 128 108 103 102 111 90 74 72 69 65 56 41 30 30 39
252 250 238 230 219 206 183 212 212 195 189 182 170 164 175 186 204 200 199 192 195 190 190 187 179 167 163 169 178 193 203 198 186 174 176 170 167 164 160 165 166 167 173 182 171 159 154 148 137 130 135 121 135 140 134 130 122 101 83 93 86 71 66 122 132 130 140 153 148 146 134 122 119 125 125 104 85 79 73 65 63 52 38 39 24
242 254 254 259 259 271 262 289 337 299 277 260 200 186 196 202 205 208 204 198 199 200 193 186 187 162 154 172 194 203 208 208 184 176 181 178 166 172 173 171 168 170 166 160 174 146 135 135 137 110 119 145 147 149 145 136 125 146 142 134 107 88 101 97 106 137 128 158 161 149 141 133 129 136 134 102 90 88 79 76 67 57 46 47 43
296 304 330 337 338 352 8 2 346 337 334 319 275 265 232 232 219 233 206 216 241 216 196 178 170 164 163 170 196 204 198 195 196 172 179 200 185 175 181 171 169 154 149 168 179 161 149 158 157 144 141 139 133 150 162 186 138 136 123 119 148 138 97 91 85 96 126 141 142 142 129 134 141 151 144 115 110 95 87 75 71 61 51 47 50
357 1 359 358 359 2 4 359 348 335 328 320 311 322 314 314 306 32 164 130 124 124 139 132 163 152 160 188 201 201 200 202 195 187 182 187 198 189 176 172 171 165 164 170 186 173 153 162 154 147 153 146 155 164 182 198 151 141 155 191 144 115 136 185 162 103 130 139 120 131 139 145 150 152 144 134 127 112 92 80 72 64 55 55 50
22 23 22 16 13 8 358 356 350 340 330 335 329 333 328 346 359 31 60 61 55 123 164 198 177 170 185 197 209 196 200 205 197 191 180 182 196 203 177 172 165 171 170 176 184 178 168 168 161 155 169 156 159 157 191 205 185 212 141 128 92 202 207 143 133 105 141 166 186 151 150 152 161 164 159 148 142 127 112 87 78 69 63 60 57
38 52 60 59 62 19 345 347 34 337 311 296 241 211 274 275 275 198 192 188 219 185 194 197 176 177 205 198 209 207 202 204 204 196 187 164 163 182 179 161 154 147 176 247 189 167 170 169 171 166 167 169 156 161 171 223 207 218 285 52 158 172 167 157 154 196 44 183 209 158 172 176 167 171 175 156 156 140 120 110 90 82 75 68 72
44 82 69 107 128 135 127 98 189 234 248 222 188 183 225 232 222 237 229 200 225 277 350 283 200 203 190 208 215 199 200 194 191 171 133 157 183 157 164 195 172 170 167 180 206 196 176 175 169 170 167 156 156 163 175 179 184 263 246 59 50 42 140 144 182 118 184 199 56 144 175 184 171 172 191 185 160 142 131 124 111 105 88 87 81
12 340 128 127 113 98 98 125 263 273 248 216 186 193 210 213 284 17 13 19 12 11 340 306 283 205 198 210 217 192 235 216 185 168 162 156 157 164 168 197 189 179 176 181 177 208 182 172 174 174 158 164 170 170 174 170 180 198 190 196 117 110 166 83 134 163 146 168 192 47 44 208 180 187 203 197 172 156 146 139 133 122 115 91 87
42 16 0 334 312 123 114 91 299 260 230 208 191 188 204 160 89 62 306 213 195 183 199 208 229 239 246 244 214 202 228 236 207 177 188 162 156 168 169 190 198 181 180 179 178 193 194 169 170 168 171 175 177 172 163 180 188 184 159 150 111 124 141 67 130 105 149 162 152 186 183 44 136 292 202 204 186 154 160 158 144 137 127 106 99
34 24 337 0 22 345 12 120 179 275 262 228 200 175 161 123 105 155 221 225 201 103 131 208 207 143 225 196 159 197 193 237 221 180 182 175 164 169 173 191 210 175 198 197 178 187 202 177 174 177 175 173 177 170 177 176 187 175 177 142 132 122 120 95 154 147 68 127 172 190 192 179 172 203 301 180 185 173 166 152 145 138 127 128 124
0 3 13 23 14 40 334 339 331 310 3 295 224 190 149 139 177 201 222 229 178 178 200 197 176 202 204 196 194 196 189 203 200 181 187 199 191 168 181 196 178 184 207 210 186 188 199 182 177 177 176 175 174 174 177 174 171 171 167 168 163 166 169 175 181 180 159 160 125 177 148 183 178 174 228 66 178 177 169 156 156 145 134 136 136